Погода в Киверичах

Россия / Тверская область     57°21′51″N   36°35′32″E
темп.,
°C
ветер,
м/с
пор.,
м/с
влажн.,
%
обл.,
%
осадки,
мм/ч
давл.,
гПа
погр.,
м
20 мая, пт
пт2000:00+3ссв3107460 0.0 1017252
03:000с38825 0.0 1019174
06:00+1с37775 0.0 1020242
09:00+6ссв34490 0.0 10201067
12:00+10ссв23395 0.0 10191702
15:00+11с23365 0.0 10181992
18:00+10с334298 0.0 10171687
21:00+5всв2263100 0.0 101713
21 мая, сб
сб2100:00+3вюв226994 0.0 101723
03:00+2в1167100 0.0 101710
06:00+3всв236763 0.0 1016101
09:00+8всв235164 0.0 1015682
12:00+11всв334214 0.0 10131806
15:00+13всв323869 0.0 10112110
18:00+12всв444785 0.0 10101493
21:00+5всв36652 0.0 101088
22 мая, вс
вс2200:00+2всв39751 0.0 1009154
03:00+1св38835 0.0 1009159
06:00+3св39775 0.0 1008249
09:00+9св56475 0.0 10071573
12:00+11св563896 0.0 10072237
15:00+12ссв563674 0.0 10072312
18:00+11с474282 0.0 10062259
21:00+5с35615 0.0 100781
23 мая, пн
пн2300:00+3с37655 0.0 1008113
03:00+1ссз38795 0.0 1008143
06:00+2ссз39682 0.0 1008236
09:00+8ссз574737 0.0 10071165
12:00+11сз573575 0.0 10071610
15:00+13ссз683357 0.0 10061992
18:00+12ссз4939100 0.0 10061582
21:00+7с31049100 0.0 1008371
24 мая, вт
вт2400:00+4сз31062100 0.0 1009241
03:00+4сз41259100 0.0 1009411
06:00+4сз51255100 0.0 1010609
09:00+8ссз6103973 0.0 1010932
12:00+13ссз6103057 0.0 10101640
15:00+15с692743 0.0 10112072
18:00+13ссв483993 0.0 10121215
21:00+6в367551 0.0 1015150